Regional Weather Roundup
Issued by NWS Newport/Morehead, NC

Current Version | Previous Version | Text Only | Print | Product List | Glossary On
Versions: 1 2 3 4 5 6 7 8 9 10 11 12 13 14 15 16 17 18 19 20 21 22 23 24 25 26 27 28 29 30 31 32 33 34 35 36 37 38 39 40 41 42 43 44 45 46 47 48 49 50
000 ASUS42 KMHX 250613 RWRMHX WEATHER ROUNDUP FOR EASTERN NORTH CAROLINA NATIONAL WEATHER SERVICE NEWPORT/MOREHEAD CITY NC 200 AM EDT WED MAY 25 2016 NOTE: "FAIR" INDICATES FEW OR NO CLOUDS BELOW 12,000 FEET WITH NO SIGNIFICANT WEATHER AND/OR OBSTRUCTIONS TO VISIBILITY NCZ015>017-031-032-045>047-102-103-250700- NORTH COAST CITY SKY/WX TMP DP RH WIND PRES REMARKS EDENTON CLEAR N/A N/A N/A W3 30.14S ELIZABETH CITY CLEAR 64 60 87 SW7 30.13S KITTY HAWK CLEAR 67 59 75 SW8 30.12F MANTEO CLEAR 66 62 87 W7 30.14F $$ NCZ045>047-081-094-103-104-250700- CENTRAL COAST CITY SKY/WX TMP DP RH WIND PRES REMARKS FRISCO CLEAR 67 62 84 W8 30.15F $$ NCZ095-097-098-100-101-250700- SOUTHERN COAST CITY SKY/WX TMP DP RH WIND PRES REMARKS BEAUFORT CLEAR 68 63 84 SW5 30.17F CEDAR ISLAND NOT AVBL JACKSONVILLE CLEAR 63 57 81 W7 30.16F PINEY ISLAND CLEAR N/A N/A N/A SW7 30.16F WILMINGTON CLEAR 65 59 81 SW6 30.17F $$ NCZ011>013-027>030-043-044-078>080-089-090>093-098-250700- COASTAL PLAIN CITY SKY/WX TMP DP RH WIND PRES REMARKS AHOSKIE MOCLDY 60 55 83 CALM 30.14S CLINTON CLEAR 62 58 86 CALM 30.17S ELIZABETHTOWN CLEAR 63 56 79 SW3 30.18S GOLDSBORO CLEAR 64 62 91 SW5 30.15S GREENVILLE CLEAR 64 59 82 SW7 30.16S HAVELOCK CLEAR 62 57 83 SW5 30.17F KENANSVILLE CLEAR 60 57 89 CALM 30.18S KINSTON CLEAR 64 57 80 SW5 30.17S NEW BERN CLEAR 63 55 75 SW5 30.17F RICHLANDS CLEAR 59 57 93 CALM 30.18S ROCKY MOUNT CLEAR 60 56 86 CALM 30.14S WASHINGTON CLEAR 64 58 79 SW5 30.15F WHITEVILLE CLEAR 65 57 74 SW5 30.18S $$ AMZ130-135-150-152-154-156-158-170-250-252-270-ANZ085-086-088-633-658-670-250700- MARINE OBSERVATIONS STATION/POSITION TIME TEMP WIND PRES WAVE SWELL AIR SEA DIR/SP/G HT/PER HT/PER (UTC) (F) (DEG/KT/KT) (MB) (FT/S) (FT/S) CHESAPEAKE LIGHT 0600 69 230/ 19/ 19 1019.2 64 E VA BEACH 0550 61 56 230/ 12/ 14 1019.2 3/ 5 2/ 5 DUCK 0500 69 62 230/ 11/ 15 1019.6 2 E DUCK 0511 62 N/A 2/11 OREGON INLET 0500 69 70 230/ 12/ 16 1020.4 13E OREGON INLT 0600 63 N/A 3/ 9 2/ 9 HATTERAS CG 0500 67 68 220/ 7/ 10 1020.6 DIAMOND BUOY 0550 71 71 250/ 12/ 14 1021.0 3/ 9 2/ 9 CAPE LOOKOUT 0600 69 250/ 7/ 8 1021.3 BEAUFORT LAB 0500 70 68 230/ 4/ 7 1021.0 30 SE NEW RVR IN 0525 73 N/A 3/ 4 27 SE WRIGHTSVLE 0508 73 72 250/ 12/ 16 1021.8 5 SE WRIGHTSVLE NOT AVBL 225 S CAPE HAT 0550 73 78 360/ 6/ 10 1022.3 4/ 8 3/ 8 41 SE CHARLESTON 0550 76 76 190/ 6/ 8 1021.9 2/10 2/10 $$

USA.gov is the U.S. government's official web portal to all federal, state and local government web resources and services.